Change the Weather History Date:

Thursday, March 3, 2011

  Actual Average Record
Temperature  
Mean Temperature 60 °F -  
Max Temperature 75 °F 62 °F 75 °F (2011)
Min Temperature 46 °F 42 °F 19 °F (2014)
Degree Days  
Heating Degree Days 4    
Growing Degree Days 10 (Base 50)    
Moisture  
Dew Point 41 °F    
Average Humidity 51    
Maximum Humidity 72    
Minimum Humidity 33    
Precipitation  
Precipitation 0.00 in - - ()
Sea Level Pressure  
Sea Level Pressure 29.98 in    
Wind  
Wind Speed 6 mph (South)    
Max Wind Speed 15 mph    
Max Gust Speed 22 mph    
Visibility 10 miles    
Events      
Averages and records for this station are not official NWS values.
T = Trace of Precipitation, MM = Missing Value Source: NWS Daily Summary

Daily Weather History Graph

Daily Weather History Graph

Search for Another Location

Airport or City:

Trip Planner

Search our weather history database for the weather conditions in past years. The results will help you decide how hot, cold, wet, or windy it might be!

Date:

Astronomy

Mar. 03, 2011 Rise Set
Actual Time 6:57 AM CST 6:32 PM CST
Civil Twilight 6:33 AM CST 6:57 PM CST
Nautical Twilight 6:05 AM CST 7:24 PM CST
Astronomical Twilight 5:37 AM CST 7:52 PM CST
Moon 6:02 AM CST 5:47 PM CST
Length of Visible Light 12h 23m
Length of Day
11h 35m
Waning Crescent, 1% of the Moon is Illuminated
Mar 3
Waning Crescent
Mar 4
New
Mar 12
First Quarter
Mar 19
Full
Mar 26
Last Quarter

Hourly Weather History & Observations

Time (CST) Temp. Dew Point Humidity Pressure Visibility Wind Dir Wind Speed Gust Speed Precip Events Conditions
12:53 AM 55.0 °F 37.9 °F 53% 30.06 in 10.0 mi South 5.8 mph - N/A   Clear
1:53 AM 52.0 °F 37.9 °F 59% 30.06 in 10.0 mi Calm Calm - N/A   Clear
2:53 AM 51.1 °F 37.0 °F 59% 30.05 in 10.0 mi South 4.6 mph - N/A   Clear
3:53 AM 51.1 °F 36.0 °F 56% 30.02 in 10.0 mi SSE 3.5 mph - N/A   Clear
4:53 AM 48.9 °F 35.1 °F 59% 30.03 in 10.0 mi Calm Calm - N/A   Clear
5:53 AM 46.9 °F 34.0 °F 61% 30.03 in 10.0 mi Calm Calm - N/A   Clear
6:53 AM 46.0 °F 34.0 °F 63% 30.03 in 10.0 mi Calm Calm - N/A   Clear
7:53 AM 51.1 °F 35.1 °F 54% 30.04 in 10.0 mi Calm Calm - N/A   Clear
8:53 AM 55.0 °F 39.9 °F 57% 30.05 in 10.0 mi South 6.9 mph - N/A   Clear
9:53 AM 59.0 °F 39.9 °F 49% 30.04 in 10.0 mi South 8.1 mph - N/A   Clear
10:53 AM 63.0 °F 39.9 °F 43% 30.03 in 10.0 mi South 11.5 mph 17.3 mph N/A   Clear
11:53 AM 66.9 °F 41.0 °F 39% 30.00 in 10.0 mi South 12.7 mph 18.4 mph N/A   Clear
12:53 PM 71.1 °F 42.1 °F 35% 29.96 in 10.0 mi South 12.7 mph 19.6 mph N/A   Unknown
1:53 PM 73.9 °F 44.1 °F 34% 29.92 in 10.0 mi South 13.8 mph 21.9 mph N/A   Clear
2:53 PM 75.0 °F 45.0 °F 34% 29.90 in 10.0 mi South 8.1 mph 19.6 mph N/A   Clear
3:53 PM 75.0 °F 44.1 °F 33% 29.88 in 10.0 mi South 15.0 mph 20.7 mph N/A   Clear
6:53 PM 70.0 °F 48.0 °F 46% 29.89 in 10.0 mi South 10.4 mph - N/A   Unknown
7:53 PM 66.9 °F 46.9 °F 49% 29.89 in 10.0 mi South 9.2 mph 16.1 mph N/A   Clear
9:53 PM 63.0 °F 48.9 °F 60% 29.91 in 10.0 mi SSE 8.1 mph 18.4 mph N/A   Clear
10:53 PM 61.0 °F 48.9 °F 64% 29.91 in 10.0 mi SSE 8.1 mph - N/A   Clear
11:53 PM 59.0 °F 50.0 °F 72% 29.91 in 10.0 mi SSE 9.2 mph 17.3 mph N/A   Clear